Tracking 20242 objects as of 25-Jan-2020
HD Live streaming from Space Station
objects crossing your sky now

PSLV DEB

Track PSLV DEB now!
10-day predictions


NORAD ID: 27097
Int'l Code: 2001-049AR
Perigee: 418.7 km
Apogee: 458.0 km
Inclination: 97.6 °
Period: 93.2 minutes
Semi major axis: 6809 km
RCS: 0.0202 m2 (small)
Launch date: October 22, 2001
Source: India (IND)
Launch site: SRIHARIKOTA (SRI)

Note: This is SATELLITE DEBRIS
aabbcc
Your satellite tracking list
Your tracking list is empty




NASA's NSSDC Master Catalog

Two Line Element Set (TLE):
1 27097U 01049AR  20024.39647827  .00006522  00000-0  13804-3 0  9997
2 27097  97.5625 186.7708 0028879  32.4466 327.8550 15.45045879989225
Source of the keplerian elements: AFSPC